Location: Bremen
(53.0793°N, 8.8017°E)
Time: 08:38:30
(UTC+01:00)

Explorer 7 - Pass Details

Date: 30 November 2021
Orbit: 483 x 674 km, 50.3° (Epoch: 17 January)

Event Time Altitude Azimuth Distance (km) Brightness Sun altitude
Rises 09:16:44 0° 247° (WSW) 2,710 10.2 6.0°
Reaches altitude 10° 09:19:04 10° 242° (WSW) 1,786 9.3 6.2°
Maximum altitude 09:22:58 49° 168° (SSE) 671 8.0 6.6°
Drops below altitude 10° 09:26:41 10° 93° (E) 1,704 10.0 7.0°
Sets 09:28:52 0° 88° (E) 2,571 10.8 7.2°
